{"data":{"norad_id":36596,"epoch":"2026-09-20T05:38:41.826912Z","epoch_age_seconds":48512,"freshness":"FRESH","line1":"1 36596U 10027A   26263.23520633  .00002772  00000+0  14203-3 0  9992","line2":"2 36596  97.7611 283.2259 0007854 121.8141 238.3857 15.17447309889276","mean_motion":15.17447309,"eccentricity":0.0007854,"inclination_deg":97.7611,"raan_deg":283.2259,"arg_perigee_deg":121.8141,"mean_anomaly_deg":238.3857,"bstar":0.00014203,"rev_number":88927,"period_min":94.896210989294,"perigee_km":508.14598883285,"apogee_km":518.97146448028,"semimajor_km":6891.6957266566,"source":"CELESTRAK","updated_at":"2026-09-20T09:00:13.752319Z"}}